Home > Weather > Hanoi > Past weeks

Flag for Vietnam Past Weather in Hanoi, Vietnam — Yesterday and Last 2 Weeks

Now
91 °F

Passing clouds.


Feels Like: 103 °F
Forecast: 79 / 95 °F
Wind: 5 mph from Southwest

Location: Ha Noi Airport

Current Time: Aug 24, 2016 at 7:22:17 PM

Latest Report: Aug 24, 2016 at 7:00 PM


Visibility: N/A

Pressure: 29.59 "Hg

Humidity: 59%

Dew Point: 75 °F

Location of HanoiLocation

Past Weather in Hanoi — Graph

°F

Hanoi Temperature Yesterday

Maximum temperature yesterday: 91 °F (at 11:30 AM)
Minimum temperature yesterday: 79 °F (at 5:00 AM)
Average temperature yesterday: 84 °F

High & Low Weather Summary for the Past Weeks

 TemperatureHumidityPressure
High95 °F (Aug 9, 6:00 PM)100% (Aug 14, 2:30 AM)29.71 "Hg (Aug 14, 2:30 AM)
Low75 °F (Aug 15, 12:00 AM)53% (Aug 9, 6:00 PM)29.12 "Hg (Aug 19, 2:00 PM)
Average83 °F86%29.52 "Hg
* Reported Aug 9 6:00 PM — Aug 24 6:00 PM, Hanoi, Weather by CustomWeather, © 2016

Note: Actual official high and low records may vary slightly from our data, if they occured in-between our weather recording intervals... More about our weather records

Advertising

Hanoi Weather History for the Previous 24 Hours

Scroll right to see more
 ConditionsComfort  
Time TempWeatherWind HumidityBarometerVisibility
6:00 PM
Wed, Aug 24
91 °FSunny.6 mph63%29.56 "Hg10 mi
5:30 PM93 °FPassing clouds.6 mph59%29.56 "HgN/A
5:00 PM93 °FPassing clouds.7 mph59%29.56 "HgN/A
4:30 PM95 °FPassing clouds.7 mph53%29.56 "HgN/A
4:00 PM95 °FPassing clouds.6 mph53%29.56 "HgN/A
3:30 PM95 °FPassing clouds.6 mph56%29.59 "HgN/A
3:00 PM95 °FScattered clouds.3 mph60%29.59 "HgN/A
2:30 PM95 °FScattered clouds.5 mph56%29.62 "HgN/A
2:00 PM95 °FScattered clouds.5 mph56%29.62 "HgN/A
1:30 PM93 °FScattered clouds.5 mph59%29.62 "HgN/A
1:00 PM93 °FScattered clouds.7 mph63%29.65 "HgN/A
12:30 PM93 °FScattered clouds.7 mph63%29.65 "HgN/A
12:00 PM91 °FScattered clouds.7 mph71%29.68 "HgN/A
11:30 AM91 °FScattered clouds.5 mph67%29.68 "HgN/A
11:00 AM91 °FScattered clouds.5 mph67%29.68 "HgN/A
10:30 AM90 °FPassing clouds.5 mph75%29.71 "HgN/A
10:00 AM88 °FScattered clouds.5 mph79%29.71 "HgN/A
9:30 AM88 °FPassing clouds.2 mph79%29.71 "HgN/A
9:00 AM86 °FPassing clouds.3 mph84%29.71 "HgN/A
8:30 AM84 °FPassing clouds.3 mph84%29.71 "HgN/A
8:00 AM82 °FPassing clouds.3 mph89%29.71 "Hg6 mi
7:30 AM82 °FClear.5 mph89%29.71 "Hg6 mi
7:00 AM81 °FFog.3 mph94%29.68 "Hg3 mi
6:30 AM79 °FFog.3 mph100%29.68 "Hg2 mi
6:00 AM79 °FFog.2 mph94%29.68 "Hg2 mi
5:30 AM79 °FFog.3 mph94%29.68 "Hg2 mi
5:00 AM79 °FFog.No wind94%29.65 "Hg3 mi
4:30 AM79 °FFog.2 mph94%29.65 "Hg3 mi
4:00 AM79 °FFog.No wind100%29.65 "Hg3 mi
3:30 AM79 °FClear.2 mph100%29.65 "Hg4 mi
3:00 AM79 °FClear.1 mph100%29.65 "Hg4 mi
2:30 AM79 °FClear.1 mph100%29.65 "Hg4 mi
2:00 AM81 °FClear.2 mph94%29.65 "Hg4 mi
1:30 AM81 °FPassing clouds.2 mph94%29.65 "Hg6 mi
1:00 AM81 °FPassing clouds.3 mph94%29.65 "HgN/A
12:30 AM81 °FPassing clouds.2 mph94%29.65 "HgN/A
12:00 AM81 °FPassing clouds.3 mph94%29.68 "Hg5 mi
11:30 PM
Tue, Aug 23
81 °FPassing clouds.5 mph94%29.68 "Hg6 mi
11:00 PM81 °FPassing clouds.5 mph94%29.68 "Hg6 mi
10:30 PM81 °FPassing clouds.5 mph94%29.68 "Hg6 mi
10:00 PM82 °FPassing clouds.5 mph89%29.68 "HgN/A
9:30 PM82 °FPassing clouds.5 mph89%29.68 "HgN/A
9:00 PM82 °FPassing clouds.3 mph89%29.68 "HgN/A
8:30 PM82 °FPassing clouds.3 mph94%29.68 "Hg6 mi
8:00 PM82 °FPassing clouds.5 mph89%29.65 "HgN/A
7:30 PM82 °FPassing clouds.5 mph89%29.65 "HgN/A
7:00 PM82 °FLight rain. Passing clouds.5 mph94%29.62 "HgN/A
Weather by CustomWeather, © 2016

See weather overviewHow to use our weather pages